Regional Weather Roundup
Issued by NWS

Home | Current Version | Previous Version | Graphics & Text | Print | Product List | Glossary On
Versions: 1 2 3 4 5 6 7 8 9 10 11 12 13 14 15 16 17 18 19 20 21 22 23 24 25 26 27 28 29 30 31 32 33 34 35 36 37 38 39 40 41 42 43 44 45 46 47 48 49 50
000
ASUS43 KFSD 070102
RWRSD

WEATHER ROUNDUP FOR SOUTH DAKOTA
NATIONAL WEATHER SERVICE SIOUX FALLS SD
800 PM CDT MON JUL 06 2015

NOTE: "FAIR" INDICATES FEW OR NO CLOUDS BELOW 12,000 FEET WITH NO
SIGNIFICANT WEATHER AND/OR OBSTRUCTIONS TO VISIBILITY.


SDZ001>005-009-010-012>017-070200-
NORTHWEST AND NORTH CENTRAL SOUTH DAKOTA

CITY           SKY/WX    TMP DP  RH WIND       PRES   REMARKS
BUFFALO          N/A     70  47  43 N8        30.11F
FAITH            N/A     69  52  54 NW6       30.15S
MOBRIDGE       SUNNY     72  53  51 N10       30.10F HAZE
$$

SDZ012>016-024>037-041>051-057-063-072>074-070200-
SOUTHWEST AND SOUTH CENTRAL SOUTH DAKOTA

CITY           SKY/WX    TMP DP  RH WIND       PRES   REMARKS
RAPID CTY ARPT CLOUDY    68  54  60 N5        30.18S
PIERRE         SUNNY     71  54  54 N9        30.09F
CUSTER         CLOUDY    57  50  77 E3        30.27S HAZE
ELLSWORTH AFB  PTSUNNY   69  53  56 VRB5      30.17F
PHILIP         SUNNY     73  56  54 N5        30.13S
PINE RIDGE     SUNNY     69  52  54 N6        30.18S
WINNER         FAIR      73  54  51 NE12      30.11R
$$

SDZ004>011-016>023-039-040-070200-
NORTHEAST SOUTH DAKOTA

CITY           SKY/WX    TMP DP  RH WIND       PRES   REMARKS
ABERDEEN       MOSUNNY   69  53  56 N13       30.09S HAZE
WATERTOWN      SUNNY     66  51  58 N12       30.08R
BROOKINGS      SUNNY     64  52  63 NE7G16    30.10R
SISSETON         N/A     65  49  56 N14       30.08R
$$

SDZ017-020-022-023-036>040-048>070-070200-
SOUTHEAST SOUTH DAKOTA

CITY           SKY/WX    TMP DP  RH WIND       PRES   REMARKS
SIOUX FALLS    SUNNY     68  54  60 N15G23    30.07R
HURON          SUNNY     69  55  60 NE10      30.07R HAZE
MITCHELL       SUNNY     70  56  61 N9        30.08R HAZE
YANKTON        SUNNY     72  55  56 N12G18    30.05R
$$

ABBREVIATIONS USED IN REMARKS
   TC - TEMPERATURE IN CELSIUS
  WCI - WIND CHILL INDEX
   HX - HEAT INDEX
  VSB - VISIBILITY



USA.gov is the U.S. government's official web portal to all federal, state and local government web resources and services.